sat.trackr.live / text

‹ back to catalog

STARLINK-34211

NORAD 64255 · 2025-119Y

PAYLOAD ACTIVE UNKNOWN

§ Identity

Operator
Country
US
Launch date
2025-06-03
Launch site
AFETR
Launch vehicle
Mass (kg)
RCS (m²)

Purposes: comms

External: N2YO · Heavens-Above · Gunter

§ Orbital elements

Epoch: 2026-05-24T17:25:31.398240Z

Period
94.27 min
Inclination
43.0011°
Eccentricity
0.0001700
Mean motion
15.27602563 rev/d
Perigee alt
481.8 km
Apogee alt
484.1 km
Semi-major
6,861.1 km
B*
5.0882e-4
RAAN
238.0225°
Arg perigee
271.3700°
Mean anomaly
88.6957°
Rev number
5,579

§ Raw data

STARLINK-342111 64255U 25119Y   26144.72605785  .00013775  00000+0  50882-3 0  99952 64255  43.0011 238.0225 0001700 271.3700  88.6957 15.27602563 55799

JSON: /api/v1/satellites/64255 · /tle

For live sub-satellite position, see the globe view (requires WebGL).

§ Visibility from observer

Set your observer location to see the next 7 days of passes ≥ 10°. The values pass through the URL so the page stays shareable.

No JS? Fill the form by hand. The geolocation button needs JavaScript.